• In Deutschland
  • Länderverzeichnis
  • Für 7 Tage
  • Wassertemperatur
  • Satellitenkarten
  • Wetterkarte
  • Widgets
  • user-avatar
    Anmelden

    Stündliche Wetter Weliko Tarnovo

    Heute, 21 September, Donnerstag

    Zeit Temperatur Niederschläge Wind Luftdruck Luftfeuchtigkeit
    00:00 +18°C° 0 mm 4 m/S 733 mmHg 84%
    01:00 +17°C° 0 mm 4 m/S 733 mmHg 83%
    02:00 +16°C° 0 mm 3 m/S 734 mmHg 76%
    03:00 +16°C° 0 mm 3 m/S 734 mmHg 75%
    04:00 +16°C° 0 mm 3 m/S 734 mmHg 74%
    05:00 +14°C° 0 mm 3 m/S 734 mmHg 73%
    06:00 +14°C° 0 mm 3 m/S 734 mmHg 71%
    07:00 +14°C° 0 mm 3 m/S 735 mmHg 69%
    08:00 +16°C° 0 mm 3 m/S 735 mmHg 65%
    09:00 +17°C° 0 mm 4 m/S 735 mmHg 60%
    10:00 +18°C° 0 mm 4 m/S 735 mmHg 54%
    11:00 +20°C° 0 mm 4 m/S 735 mmHg 48%
    12:00 +20°C° 0 mm 4 m/S 735 mmHg 45%
    13:00 +21°C° 0 mm 4 m/S 735 mmHg 42%
    14:00 +21°C° 0 mm 4 m/S 735 mmHg 42%
    15:00 +21°C° 0 mm 4 m/S 735 mmHg 43%
    16:00 +20°C° 0 mm 4 m/S 735 mmHg 44%
    17:00 +20°C° 0 mm 5 m/S 736 mmHg 45%
    18:00 +18°C° 0 mm 4 m/S 736 mmHg 49%
    19:00 +17°C° 0 mm 4 m/S 736 mmHg 53%
    20:00 +14°C° 0 mm 4 m/S 737 mmHg 58%
    21:00 +14°C° 0 mm 4 m/S 737 mmHg 60%
    22:00 +13°C° 0 mm 4 m/S 737 mmHg 63%
    23:00 +12°C° 0 mm 3 m/S 738 mmHg 65%

    Morgen, 22 September, Freitag

    Zeit Temperatur Niederschläge Wind Luftdruck Luftfeuchtigkeit
    00:00 +12°C° 0 mm 3 m/S 738 mmHg 67%
    01:00 +11°C° 0 mm 3 m/S 738 mmHg 68%
    02:00 +11°C° 0 mm 3 m/S 738 mmHg 70%
    03:00 +10°C° 0 mm 3 m/S 738 mmHg 70%
    04:00 +10°C° 0 mm 3 m/S 738 mmHg 70%
    05:00 +10°C° 0 mm 3 m/S 738 mmHg 70%
    06:00 +11°C° 0 mm 3 m/S 738 mmHg 65%
    07:00 +12°C° 0 mm 4 m/S 738 mmHg 60%
    08:00 +14°C° 0 mm 5 m/S 738 mmHg 55%
    09:00 +15°C° 0 mm 5 m/S 738 mmHg 51%
    10:00 +16°C° 0 mm 6 m/S 738 mmHg 47%
    11:00 +17°C° 0 mm 6 m/S 738 mmHg 44%
    12:00 +17°C° 0 mm 6 m/S 738 mmHg 44%
    13:00 +19°C° 0 mm 6 m/S 738 mmHg 45%
    14:00 +19°C° 0 mm 6 m/S 738 mmHg 45%
    15:00 +17°C° 0,1 mm 6 m/S 738 mmHg 46%
    16:00 +17°C° 0,1 mm 6 m/S 738 mmHg 47%
    17:00 +17°C° 0,1 mm 6 m/S 739 mmHg 49%
    18:00 +15°C° 0 mm 5 m/S 739 mmHg 53%
    19:00 +14°C° 0 mm 4 m/S 739 mmHg 58%
    20:00 +13°C° 0 mm 3 m/S 739 mmHg 63%
    21:00 +12°C° 0 mm 3 m/S 740 mmHg 65%
    22:00 +12°C° 0 mm 3 m/S 740 mmHg 66%
    23:00 +11°C° 0 mm 3 m/S 740 mmHg 68%

    übermorgen, 23 September, Samstag

    Zeit Temperatur Niederschläge Wind Luftdruck Luftfeuchtigkeit
    00:00 +11°C° 0 mm 3 m/S 740 mmHg 70%
    01:00 +11°C° 0 mm 3 m/S 740 mmHg 71%
    02:00 +11°C° 0 mm 3 m/S 740 mmHg 73%
    03:00 +11°C° 0 mm 3 m/S 740 mmHg 74%
    04:00 +10°C° 0 mm 3 m/S 740 mmHg 76%
    05:00 +10°C° 0 mm 3 m/S 740 mmHg 78%
    06:00 +12°C° 0 mm 3 m/S 741 mmHg 72%
    07:00 +13°C° 0 mm 4 m/S 741 mmHg 67%
    08:00 +14°C° 0 mm 5 m/S 741 mmHg 62%
    09:00 +16°C° 0 mm 5 m/S 741 mmHg 56%
    10:00 +17°C° 0 mm 5 m/S 741 mmHg 51%
    11:00 +20°C° 0 mm 6 m/S 741 mmHg 45%
    12:00 +20°C° 0,2 mm 5 m/S 741 mmHg 43%
    13:00 +21°C° 0,2 mm 5 m/S 741 mmHg 40%
    14:00 +22°C° 0,2 mm 5 m/S 740 mmHg 38%
    15:00 +21°C° 0 mm 5 m/S 740 mmHg 38%
    16:00 +21°C° 0 mm 4 m/S 740 mmHg 37%
    17:00 +21°C° 0 mm 3 m/S 740 mmHg 37%
    18:00 +19°C° 0 mm 3 m/S 740 mmHg 42%
    19:00 +17°C° 0 mm 2 m/S 741 mmHg 47%
    20:00 +15°C° 0 mm 2 m/S 741 mmHg 52%
    21:00 +15°C° 0 mm 1 m/S 741 mmHg 53%
    22:00 +14°C° 0 mm 1 m/S 741 mmHg 55%
    23:00 +14°C° 0 mm 1 m/S 741 mmHg 56%

    24 September, Sonntag

    Zeit Temperatur Niederschläge Wind Luftdruck Luftfeuchtigkeit
    00:00 +14°C° 0 mm 1 m/S 741 mmHg 57%
    01:00 +13°C° 0 mm 1 m/S 741 mmHg 58%
    02:00 +13°C° 0 mm 1 m/S 741 mmHg 59%
    03:00 +13°C° 0 mm 1 m/S 741 mmHg 60%
    04:00 +13°C° 0 mm 1 m/S 741 mmHg 61%
    05:00 +12°C° 0 mm 1 m/S 741 mmHg 61%
    06:00 +14°C° 0 mm 1 m/S 741 mmHg 57%
    07:00 +15°C° 0 mm 1 m/S 742 mmHg 52%
    08:00 +18°C° 0 mm 1 m/S 742 mmHg 48%
    09:00 +20°C° 0 mm 1 m/S 742 mmHg 42%
    10:00 +23°C° 0 mm 1 m/S 742 mmHg 37%
    11:00 +25°C° 0 mm 1 m/S 742 mmHg 32%
    12:00 +26°C° 0 mm 1 m/S 742 mmHg 30%
    13:00 +26°C° 0 mm 1 m/S 742 mmHg 29%
    14:00 +27°C° 0 mm 1 m/S 741 mmHg 28%
    15:00 +26°C° 0 mm 1 m/S 741 mmHg 29%
    16:00 +26°C° 0 mm 1 m/S 741 mmHg 30%
    17:00 +25°C° 0 mm 2 m/S 741 mmHg 32%
    18:00 +23°C° 0 mm 2 m/S 741 mmHg 36%
    19:00 +20°C° 0 mm 2 m/S 741 mmHg 40%
    20:00 +18°C° 0 mm 2 m/S 741 mmHg 45%
    21:00 +17°C° 0 mm 2 m/S 742 mmHg 49%
    22:00 +17°C° 0 mm 2 m/S 742 mmHg 53%
    23:00 +16°C° 0 mm 2 m/S 742 mmHg 57%

    25 September, Montag

    Zeit Temperatur Niederschläge Wind Luftdruck Luftfeuchtigkeit
    00:00 +16°C° 0 mm 2 m/S 742 mmHg 61%
    01:00 +15°C° 0 mm 2 m/S 742 mmHg 65%
    02:00 +15°C° 0 mm 2 m/S 742 mmHg 69%
    03:00 +15°C° 0 mm 2 m/S 742 mmHg 71%
    04:00 +15°C° 0 mm 1 m/S 742 mmHg 73%
    05:00 +15°C° 0 mm 1 m/S 742 mmHg 75%
    06:00 +16°C° 0 mm 1 m/S 742 mmHg 70%
    07:00 +18°C° 0 mm 1 m/S 742 mmHg 66%
    08:00 +19°C° 0 mm 1 m/S 742 mmHg 61%
    09:00 +20°C° 0 mm 2 m/S 742 mmHg 53%
    10:00 +23°C° 0 mm 2 m/S 742 mmHg 45%
    11:00 +25°C° 0 mm 3 m/S 742 mmHg 36%
    12:00 +26°C° 0 mm 3 m/S 742 mmHg 34%
    13:00 +26°C° 0 mm 3 m/S 742 mmHg 32%
    14:00 +27°C° 0 mm 3 m/S 741 mmHg 30%
    15:00 +26°C° 0 mm 3 m/S 741 mmHg 31%
    16:00 +26°C° 0 mm 3 m/S 741 mmHg 33%
    17:00 +25°C° 0 mm 4 m/S 741 mmHg 34%
    18:00 +22°C° 0 mm 3 m/S 741 mmHg 39%
    19:00 +20°C° 0 mm 2 m/S 741 mmHg 45%
    20:00 +18°C° 0 mm 2 m/S 742 mmHg 50%
    21:00 +17°C° 0 mm 2 m/S 741 mmHg 55%
    22:00 +18°C° 0 mm 1 m/S 741 mmHg 59%
    23:00 +16°C° 0 mm 1 m/S 741 mmHg 64%

    26 September, Dienstag

    Zeit Temperatur Niederschläge Wind Luftdruck Luftfeuchtigkeit
    00:00 +15°C° 0 mm 1 m/S 741 mmHg 66%
    01:00 +15°C° 0 mm 1 m/S 741 mmHg 69%
    02:00 +15°C° 0 mm 1 m/S 741 mmHg 72%
    03:00 +14°C° 0 mm 1 m/S 741 mmHg 74%
    04:00 +14°C° 0 mm 1 m/S 741 mmHg 76%
    05:00 +14°C° 0 mm 1 m/S 741 mmHg 78%
    06:00 +15°C° 0 mm 1 m/S 741 mmHg 74%
    07:00 +16°C° 0 mm 1 m/S 741 mmHg 70%
    08:00 +18°C° 0 mm 1 m/S 741 mmHg 66%
    09:00 +19°C° 0 mm 2 m/S 741 mmHg 59%
    10:00 +21°C° 0 mm 3 m/S 741 mmHg 53%
    11:00 +22°C° 0 mm 3 m/S 741 mmHg 46%
    12:00 +24°C° 0 mm 3 m/S 741 mmHg 44%
    13:00 +25°C° 0 mm 3 m/S 740 mmHg 42%
    14:00 +25°C° 0 mm 4 m/S 740 mmHg 40%
    15:00 +25°C° 0 mm 4 m/S 740 mmHg 42%
    16:00 +23°C° 0 mm 4 m/S 740 mmHg 45%
    17:00 +22°C° 0 mm 4 m/S 740 mmHg 47%
    18:00 +21°C° 0 mm 3 m/S 741 mmHg 55%
    19:00 +19°C° 0 mm 2 m/S 741 mmHg 62%
    20:00 +17°C° 0 mm 2 m/S 741 mmHg 69%
    21:00 +16°C° 0 mm 1 m/S 742 mmHg 73%
    22:00 +16°C° 0 mm 1 m/S 742 mmHg 76%
    23:00 +15°C° 0 mm 1 m/S 742 mmHg 80%
    Mehr zeigen